STW121 LTFM-UUBW

Flight info

Callsign STW121
Flight time N/A
Altitude 36000
Route IBLAX P727 BGS L622 KOMAN DCT KARIL DCT KENIN DCT KEFIR DCT DOGIG L999 BIGLU/K0832F360 T406 RAVOK T52 BILRU BILRU2W
Aircraft A321/M-SDFGJ1IYRW/LB1

Departure

Time 2026-05-04 07:17
Airport İstanbul Airport (LTFM)

Arrival

Time N/A
Airport Zhukovsky International Airport (UUBW)
Time Latitude Longitude Altitude Speed Heading
2026-05-04 06:50 41.26164 28.73615 334 ft 0 kts 107°
2026-05-04 07:05 41.26165 28.73608 334 ft 2 kts 105°
2026-05-04 07:05 41.26169 28.73587 330 ft 2 kts 99°
2026-05-04 07:06 41.26166 28.73543 329 ft 2 kts 64°
2026-05-04 07:06 41.26157 28.73524 329 ft 2 kts 38°
2026-05-04 07:06 41.26144 28.73512 330 ft 2 kts 19°
2026-05-04 07:07 41.26134 28.73507 330 ft 1 kts 15°
2026-05-04 07:08 41.26133 28.73507 334 ft 0 kts 15°
2026-05-04 07:12 41.26153 28.73514 334 ft 7 kts 15°
2026-05-04 07:12 41.26204 28.73516 330 ft 7 kts 327°
2026-05-04 07:13 41.26221 28.73456 333 ft 10 kts 275°
2026-05-04 07:13 41.26219 28.73321 331 ft 17 kts 269°
2026-05-04 07:13 41.26217 28.73165 331 ft 17 kts 269°
2026-05-04 07:14 41.26209 28.72585 330 ft 11 kts 269°
2026-05-04 07:14 41.26228 28.72532 332 ft 6 kts 327°
2026-05-04 07:15 41.26257 28.72523 332 ft 0 kts 356°
2026-05-04 07:16 41.26284 28.72521 330 ft 22 kts 357°
2026-05-04 07:16 41.26702 28.72504 333 ft 98 kts 360°
2026-05-04 07:16 41.27616 28.72491 332 ft 159 kts 359°
2026-05-04 07:17 41.28789 28.72469 957 ft 168 kts 357°
2026-05-04 07:17 41.29952 28.72435 1830 ft 166 kts 358°
2026-05-04 07:17 41.31099 28.72402 2335 ft 167 kts 359°
2026-05-04 07:17 41.32253 28.72418 2924 ft 166 kts
2026-05-04 07:18 41.33406 28.72472 3513 ft 167 kts
2026-05-04 07:18 41.34644 28.72498 3664 ft 189 kts
2026-05-04 07:18 41.36025 28.72500 3800 ft 210 kts
2026-05-04 07:18 41.37591 28.72487 3881 ft 237 kts 358°
2026-05-04 07:19 41.39188 28.71933 4533 ft 242 kts 335°
2026-05-04 07:19 41.40663 28.70790 5189 ft 246 kts 334°
2026-05-04 07:19 41.42203 28.69759 5869 ft 249 kts 338°
2026-05-04 07:19 41.43784 28.68800 6562 ft 251 kts 339°
2026-05-04 07:20 41.45383 28.67847 7224 ft 253 kts 339°
2026-05-04 07:20 41.46995 28.66873 7865 ft 257 kts 339°
2026-05-04 07:20 41.48629 28.65867 8511 ft 260 kts 339°
2026-05-04 07:20 41.50258 28.64849 9129 ft 263 kts 339°
2026-05-04 07:22 41.62225 28.53341 11474 ft 355 kts 317°
2026-05-04 07:22 41.63894 28.50881 12083 ft 357 kts 317°
2026-05-04 07:23 41.65575 28.48428 12687 ft 358 kts 319°
2026-05-04 07:23 41.67477 28.46300 13270 ft 355 kts 330°
2026-05-04 07:23 41.69624 28.44695 13838 ft 353 kts 340°
2026-05-04 07:23 41.71866 28.43447 14342 ft 355 kts 341°
2026-05-04 07:24 41.74165 28.42172 14815 ft 359 kts 341°
2026-05-04 07:24 41.76490 28.40875 15290 ft 363 kts 341°
2026-05-04 07:24 41.78834 28.39561 15766 ft 367 kts 341°
2026-05-04 07:24 41.81203 28.38229 16230 ft 371 kts 340°
2026-05-04 07:25 41.83596 28.36881 16700 ft 375 kts 340°
2026-05-04 07:26 42.00124 28.24926 19688 ft 412 kts 312°
2026-05-04 07:27 42.01228 28.22838 19943 ft 416 kts 308°
2026-05-04 07:27 42.03388 28.18545 20434 ft 420 kts 308°
2026-05-04 07:27 42.05034 28.15273 20794 ft 423 kts 308°
2026-05-04 07:27 42.06687 28.11989 21153 ft 426 kts 308°
2026-05-04 07:28 42.08350 28.08687 21507 ft 429 kts 308°
2026-05-04 07:28 42.10031 28.05350 21851 ft 432 kts 308°
2026-05-04 07:28 42.11154 28.03120 22072 ft 434 kts 308°
2026-05-04 07:28 42.12851 27.99742 22398 ft 437 kts 308°
2026-05-04 07:29 42.14561 27.96336 22720 ft 440 kts 308°
2026-05-04 07:29 42.16301 27.92864 23044 ft 443 kts 308°
2026-05-04 07:29 42.18010 27.89449 23347 ft 446 kts 307°
2026-05-04 07:29 42.19771 27.85925 23653 ft 450 kts 308°
2026-05-04 07:30 42.21693 27.82598 23907 ft 448 kts 316°
2026-05-04 07:30 42.23967 27.79737 24165 ft 446 kts 326°
2026-05-04 07:30 42.26501 27.77444 24429 ft 444 kts 335°
2026-05-04 07:30 42.29233 27.75459 24697 ft 446 kts 335°
2026-05-04 07:31 42.31972 27.73476 24965 ft 448 kts 335°
2026-05-04 07:31 42.34733 27.71468 25237 ft 451 kts 335°
2026-05-04 07:33 42.54365 27.57029 27072 ft 466 kts 335°
2026-05-04 07:33 42.57205 27.54927 27398 ft 467 kts 335°
2026-05-04 07:33 42.59979 27.52575 27791 ft 470 kts 327°
2026-05-04 07:33 42.62623 27.49965 28166 ft 470 kts 327°
2026-05-04 07:34 42.65271 27.47362 28521 ft 470 kts 327°
2026-05-04 07:34 42.67926 27.44760 28885 ft 470 kts 327°
2026-05-04 07:34 42.70576 27.42163 29237 ft 470 kts 327°
2026-05-04 07:34 42.73218 27.39573 29603 ft 470 kts 327°
2026-05-04 07:35 42.75880 27.36954 29954 ft 470 kts 327°
2026-05-04 07:35 42.78525 27.34340 30285 ft 470 kts 327°
2026-05-04 07:35 42.81178 27.31715 30586 ft 470 kts 327°
2026-05-04 07:35 42.83827 27.29091 30847 ft 471 kts 327°
2026-05-04 07:36 42.86475 27.26473 31115 ft 471 kts 327°
2026-05-04 07:36 42.89103 27.23874 31378 ft 472 kts 327°
2026-05-04 07:38 43.07750 27.05312 33232 ft 475 kts 326°
2026-05-04 07:38 43.10418 27.02648 33494 ft 475 kts 326°
2026-05-04 07:38 43.13121 27.00055 33755 ft 474 kts 328°
2026-05-04 07:38 43.15856 26.97539 34012 ft 475 kts 328°
2026-05-04 07:39 43.21406 26.92575 34068 ft 477 kts 329°
2026-05-04 07:39 43.26970 26.87605 34074 ft 477 kts 328°
2026-05-04 07:40 43.32508 26.82576 34075 ft 477 kts 328°
2026-05-04 07:40 43.37988 26.77556 34083 ft 476 kts 328°
2026-05-04 07:41 43.43531 26.72468 34079 ft 475 kts 328°
2026-05-04 07:41 43.49041 26.67404 34088 ft 475 kts 328°
2026-05-04 07:42 43.54539 26.62357 34098 ft 475 kts 327°
2026-05-04 07:42 43.60037 26.57299 34103 ft 474 kts 327°
2026-05-04 07:43 43.65483 26.52274 34113 ft 474 kts 327°
2026-05-04 07:43 43.70954 26.47203 34113 ft 473 kts 327°
2026-05-04 07:44 43.76428 26.42120 34114 ft 472 kts 327°
2026-05-04 07:44 43.81884 26.37055 34111 ft 472 kts 327°
2026-05-04 07:45 43.87334 26.31976 34111 ft 472 kts 327°
2026-05-04 07:45 43.92742 26.26918 34110 ft 471 kts 327°
2026-05-04 07:46 43.98173 26.21832 34105 ft 471 kts 327°
2026-05-04 07:46 44.03626 26.16785 34101 ft 471 kts 328°
2026-05-04 07:47 44.09106 26.11814 34100 ft 470 kts 328°
2026-05-04 07:49 44.30916 25.91796 34098 ft 469 kts 328°
2026-05-04 07:49 44.36362 25.86766 34101 ft 469 kts 328°
2026-05-04 07:50 44.41807 25.81726 34095 ft 468 kts 328°
2026-05-04 07:50 44.47230 25.76689 34097 ft 468 kts 328°
2026-05-04 07:51 44.52626 25.71662 34107 ft 468 kts 328°
2026-05-04 07:51 44.58050 25.66602 34105 ft 468 kts 328°
2026-05-04 07:52 44.63465 25.61547 34102 ft 467 kts 328°
2026-05-04 07:52 44.68871 25.56478 34094 ft 467 kts 328°
2026-05-04 07:54 44.90409 25.36179 34099 ft 464 kts 328°
2026-05-04 07:55 44.95754 25.31116 34092 ft 462 kts 328°
2026-05-04 07:55 45.01086 25.26046 34099 ft 461 kts 328°
2026-05-04 07:56 45.06367 25.21019 34096 ft 459 kts 328°
2026-05-04 07:56 45.11650 25.15974 34087 ft 457 kts 328°
2026-05-04 07:57 45.16914 25.10945 34099 ft 456 kts 328°
2026-05-04 07:57 45.22174 25.05919 34095 ft 455 kts 328°
2026-05-04 07:58 45.27408 25.00895 34099 ft 454 kts 328°
2026-05-04 07:58 45.32630 24.95853 34104 ft 453 kts 329°
2026-05-04 07:59 45.37838 24.90825 34112 ft 452 kts 329°
2026-05-04 07:59 45.43038 24.85797 34116 ft 451 kts 329°
2026-05-04 08:00 45.48221 24.80778 34120 ft 450 kts 329°
2026-05-04 08:02 45.68819 24.60687 34142 ft 448 kts 329°
2026-05-04 08:02 45.73967 24.55645 34151 ft 447 kts 329°
2026-05-04 08:03 45.79100 24.50595 34157 ft 447 kts 329°
2026-05-04 08:03 45.84226 24.45540 34164 ft 446 kts 329°
2026-05-04 08:04 45.89339 24.40501 34165 ft 446 kts 329°
2026-05-04 08:04 45.94416 24.35487 34165 ft 445 kts 329°
2026-05-04 08:05 45.99505 24.30435 34162 ft 445 kts 329°
2026-05-04 08:05 46.04595 24.25364 34158 ft 444 kts 329°
2026-05-04 08:06 46.09675 24.20306 34156 ft 444 kts 329°
2026-05-04 08:06 46.14758 24.15232 34155 ft 444 kts 329°
2026-05-04 08:08 46.35031 23.94869 34153 ft 443 kts 329°
2026-05-04 08:11 46.57742 23.71849 34161 ft 443 kts 328°
2026-05-04 08:11 46.64451 23.65003 34167 ft 442 kts 328°
2026-05-04 08:12 46.69488 23.59840 34170 ft 442 kts 328°
2026-05-04 08:12 46.74516 23.54668 34170 ft 442 kts 328°
2026-05-04 08:13 46.79547 23.49495 34171 ft 442 kts 328°
2026-05-04 08:13 46.84572 23.44332 34179 ft 442 kts 328°
2026-05-04 08:14 46.89607 23.39136 34181 ft 442 kts 328°
2026-05-04 08:16 47.09589 23.18349 34162 ft 440 kts 327°
2026-05-04 08:16 47.14588 23.13125 34167 ft 440 kts 327°
2026-05-04 08:17 47.19581 23.07895 34170 ft 440 kts 327°
2026-05-04 08:17 47.24537 23.02687 34170 ft 441 kts 327°
2026-05-04 08:19 47.44468 22.81625 34190 ft 440 kts 327°
2026-05-04 08:20 47.49433 22.76345 34193 ft 440 kts 327°
2026-05-04 08:20 47.54406 22.71048 34199 ft 440 kts 327°
2026-05-04 08:21 47.59347 22.65773 34196 ft 440 kts 327°
2026-05-04 08:21 47.64304 22.60465 34198 ft 440 kts 327°
2026-05-04 08:22 47.69264 22.55144 34199 ft 440 kts 327°
2026-05-04 08:24 47.89529 22.34993 34171 ft 437 kts 332°
2026-05-04 08:24 47.94790 22.30431 34175 ft 437 kts 331°
2026-05-04 08:25 48.00000 22.25740 34171 ft 438 kts 330°
2026-05-04 08:25 48.05203 22.20996 34171 ft 438 kts 330°
2026-05-04 08:27 48.26018 22.02053 34166 ft 438 kts 330°
2026-05-04 08:28 48.31229 21.97288 34165 ft 438 kts 330°
2026-05-04 08:28 48.36767 21.93598 34165 ft 435 kts 347°
2026-05-04 08:29 48.42761 21.92721 34166 ft 434 kts
2026-05-04 08:31 48.66962 21.92602 34168 ft 435 kts
2026-05-04 08:33 48.91151 21.92523 34161 ft 435 kts 360°
2026-05-04 08:35 49.15363 21.92436 34333 ft 433 kts 360°
2026-05-04 08:35 49.18382 21.92424 34569 ft 433 kts 360°
2026-05-04 08:35 49.21391 21.92418 34809 ft 432 kts 360°
2026-05-04 08:37 49.39455 21.92589 35129 ft 432 kts
2026-05-04 08:37 49.42455 21.92915 35126 ft 432 kts
2026-05-04 08:38 49.48404 21.93714 35122 ft 431 kts
2026-05-04 08:38 49.54381 21.94460 35116 ft 431 kts
2026-05-04 08:40 49.78426 21.97039 35113 ft 434 kts
2026-05-04 08:41 49.84458 21.97694 35113 ft 435 kts
2026-05-04 08:41 49.90494 21.98346 35118 ft 435 kts
2026-05-04 08:42 49.96536 21.99009 35122 ft 435 kts
2026-05-04 08:42 50.02552 21.99685 35129 ft 436 kts
2026-05-04 08:43 50.08601 22.00354 35126 ft 436 kts
2026-05-04 08:43 50.14660 22.01014 35126 ft 436 kts
2026-05-04 08:44 50.20718 22.01685 35125 ft 437 kts
2026-05-04 08:46 50.45022 22.04389 35096 ft 438 kts
2026-05-04 08:46 50.51070 22.05073 35094 ft 438 kts
2026-05-04 08:47 50.57150 22.05761 35096 ft 439 kts
2026-05-04 08:47 50.63257 22.06442 35086 ft 439 kts
2026-05-04 08:48 50.69352 22.07131 35083 ft 439 kts
2026-05-04 08:48 50.75403 22.07826 35083 ft 439 kts
2026-05-04 08:49 50.81336 22.09961 35084 ft 439 kts 23°
2026-05-04 08:50 50.95187 22.28859 35078 ft 442 kts 44°
2026-05-04 08:50 50.97365 22.32310 35075 ft 443 kts 44°
2026-05-04 08:51 51.01717 22.39229 35076 ft 443 kts 44°
2026-05-04 08:51 51.06066 22.46173 35074 ft 443 kts 44°
2026-05-04 08:52 51.10413 22.53124 35074 ft 443 kts 44°
2026-05-04 08:52 51.14756 22.60090 35074 ft 443 kts 44°
2026-05-04 08:54 51.32079 22.88062 35069 ft 444 kts 44°
2026-05-04 08:55 51.36436 22.95151 35068 ft 444 kts 44°
2026-05-04 08:55 51.40741 23.02182 35064 ft 445 kts 45°
2026-05-04 09:01 51.87902 23.71637 35031 ft 449 kts 34°
2026-05-04 09:01 51.93046 23.77393 35040 ft 449 kts 34°
2026-05-04 09:02 51.98154 23.83126 35040 ft 450 kts 34°
2026-05-04 09:02 52.03307 23.88925 35040 ft 450 kts 34°